Regional Weather Roundup
Issued by NWS

Home | Current Version | Previous Version | Graphics & Text | Print | Product List | Glossary On
Versions: 1 2 3 4 5 6 7 8 9 10 11 12 13 14 15 16 17 18 19 20 21 22 23 24 25 26 27 28 29 30 31 32 33 34 35 36 37 38 39 40 41 42 43 44 45 46 47 48 49 50
000
ASUS45 KBOU 290107
RWRCO

WEATHER ROUNDUP FOR COLORADO
NATIONAL WEATHER SERVICE DENVER/BOULDER CO
600 PM MST FRI NOV 28 2014

NOTE: "FAIR" INDICATES FEW OR NO CLOUDS BELOW 12000 FEET WITH NO
SIGNIFICANT WEATHER AND/OR OBSTRUCTIONS TO VISIBILITY.

COZ001>005-013-030-031-290200-
...NORTHWEST COLORADO...

CITY           SKY/WX    TMP DP  RH WIND       PRES   REMARKS
CRAIG          PTCLDY    43  18  36 W6        29.96S
HAYDEN         PTCLDY    36  21  55 E3        29.98S
MEEKER         PTCLDY    48  17  29 W9        30.00S
MOUNT WERNER   NOT AVBL
STEAMBOAT SPGS PTCLDY    31  24  76 CALM      30.00S
WALDEN         MOCLDY    37  12  35 S7        30.02S
$$

COZ006>008-011-290200-
...WEST CENTRAL VALLEYS...

CITY           SKY/WX    TMP DP  RH WIND       PRES   REMARKS
GRAND JUNCTION MOCLDY    36  24  62 E7        30.02S
MONTROSE       MOCLDY    43  22  43 CALM      30.05S
EAGLE          CLEAR     41  21  45 S6        30.05R
RIFLE          MOCLDY    39  27  62 SW5       30.03S
DELTA          MOCLDY    43  23  44 NE8       30.03S
NUCLA          MOCLDY    54  12  19 CALM      30.08S
$$

COZ017>023-064>068-290200-
...SOUTHWEST COLORADO...

CITY           SKY/WX    TMP DP  RH WIND       PRES   REMARKS
DURANGO        CLEAR     47  13  25 CALM      30.12S
CORTEZ         CLEAR     36  20  52 NE6       30.09S
PAGOSA SPRINGS CLEAR     39  10  30 CALM      30.17S
TELLURIDE      PTCLDY    43  10  26 SE5       30.21F
WOLF CREEK PAS PTCLDY    28   7  40 MISG      30.27F
$$

COZ009-010-012-014-032>034-037-058>063-290200-
...CENTRAL COLORADO...

CITY           SKY/WX    TMP DP  RH WIND       PRES   REMARKS
ASPEN          MOCLDY    37  20  50 S9        30.07S
BUENA VISTA    PTCLDY    49   4  16 W5        30.05S
COPPER MTN     MOCLDY    34   1  25 W26G33    30.20F WCI  21
BERTHOUD PASS  NOT AVBL
COTTONWOOD PAS PTCLDY    46  -4  12 W28G47    30.09S
GUNNISON       PTCLDY    28  18  64 N3        30.17S
KREMMLING      MOCLDY    36  19  51 CALM      30.03F
LEADVILLE      PTCLDY    30   8  39 E8        30.12S WCI  22
MONARCH PASS   PTCLDY    32   5  32 W37G44    30.32S WCI  16
SALIDA         PTCLDY    49   4  15 S6        30.12S
SUNLIGHT       MOCLDY    32  18  55 CALM      30.18S
WILKERSON PASS PTCLDY    36   1  23 W10G22    30.17F
$$

COZ069>075-290200-
...SAN LUIS VALLEY/SANGRE DE CRISTO MOUNTAINS...

CITY           SKY/WX    TMP DP  RH WIND       PRES   REMARKS
ALAMOSA        PTCLDY    41   8  25 SW10      30.08R
LA VETA PASS   NOT AVBL
SAGUACHE       PTCLDY    37  14  38 W3        30.10S
$$

COZ035-036-038>040-290200-
...NORTHERN COLORADO FRONT RANGE...

CITY           SKY/WX    TMP DP  RH WIND       PRES   REMARKS
DENVER INTL AP CLOUDY    59  13  16 E5        29.82S
DMNS CITY PARK   N/A     65   6  10 NW12G23   29.80F
AURORA         MOCLDY    57  11  16 SW12      29.84S
FRONT RANGE AP NOT AVBL
ERIE MUNI ARPT CLOUDY    64   4   9 W12G21    29.79S
BOULDER MUN AP CLOUDY    61  12  15 SE5       29.79S
CENTENNIAL     CLOUDY    57  10  15 SW6       29.85R
BROOMFIELD     NOT AVBL
FORT COLLINS   CLOUDY    63  12  14 W29G36    29.80F
LONGMONT       CLOUDY    66  10  11 NW13G26   29.81S
$$

COZ041-046-047-076>085-087-088-290200-
...PIKES PEAK/PALMER DIVIDE AND SOUTHERN FOOTHILLS...

CITY           SKY/WX    TMP DP  RH WIND       PRES   REMARKS
COLO. SPRINGS  CLOUDY    61   2   9 NE5       29.89R
A. F. ACADEMY  CLOUDY    60  -1   8 VRB6      29.91S
ELLICOTT       NOT AVBL
FALCON         NOT AVBL
FORT CARSON    MOCLDY    60   4  10 SW16G22   29.87S
LIMON          CLOUDY    36  16  44 CALM      29.84S
MONUMENT HILL  CLOUDY    52   7  16 SW9       29.92S
TRINIDAD       CLOUDY    47  29  49 W10       29.93R
$$

COZ042>045-048>051-090-091-290200-
...NORTHEAST COLORADO...

CITY           SKY/WX    TMP DP  RH WIND       PRES   REMARKS
GREELEY ARPT   CLOUDY    43  25  49 CALM      29.81S
AKRON          CLOUDY    58   8  13 S8        29.79S
BURLINGTON     CLOUDY    51  14  22 SW9       29.79F
WRAY           CLOUDY    53  20  27 W6        29.76S
STERLING       CLOUDY    41  32  70 CALM      29.77R
HOLYOKE        CLOUDY    43  28  56 W9        29.75F
FORT MORGAN    CLOUDY    56  16  20 CALM      29.79F
$$

COZ086-089-092>099-290200-
...SOUTHEAST COLORADO...

CITY           SKY/WX    TMP DP  RH WIND       PRES   REMARKS
PUEBLO         MOCLDY    67   7   9 W17       29.83R
LA JUNTA       CLOUDY    62  14  15 SW15      29.81R
LAMAR          CLOUDY    45  17  32 S9        29.77F
SPRINGFIELD      N/A     56  12  17 W9        29.84S
$$


USA.gov is the U.S. government's official web portal to all federal, state and local government web resources and services.